Location: ????????
(55.0559°N, 39.1270°E)
Time: 08:43:05
(UTC+00:00)

Cosmos 2360 Rocket - Pass Details

Date: 15 November 2025
Orbit: 833 x 843 km, 71.0° (Epoch: 14 December)

Event Time Altitude Azimuth Distance (km) Brightness Sun altitude
Exits shadow 00:29:18 23° 24° (NNE) 1,712 4.1 -37.4°
Drops below altitude 10° 00:31:26 10° 30° (NNE) 2,473 5.1 -37.1°
Sets 00:33:55 0° 34° (NE) 3,410 6.0 -36.8°
